Tracking 23446 objects as of 19-Jun-2021
HD Live streaming from Space Station
objects crossing your sky now

COSMOS 312

Track COSMOS 312 now!
10-day predictions
COSMOS 312 is classified as:


NORAD ID: 4254
Int'l Code: 1969-103A
Perigee: 1,147.2 km
Apogee: 1,182.3 km
Inclination: 74.0 °
Period: 108.5 minutes
Semi major axis: 7535 km
RCS: 3.057 m2 (large)
Launch date: November 24, 1969
Source: Commonwealth of Independent States (former USSR) (CIS)
Launch site: PLESETSK MISSILE AND SPACE COMPLEX (PKMTR)
aabbcc
Your satellite tracking list
Your tracking list is empty




NASA's NSSDC Master Catalog

Two Line Element Set (TLE):
1 04254U 69103A   21169.62973451 -.00000014  00000-0  12116-4 0  9991
2 04254  74.0216 345.2174 0023336 227.3736 203.5115 13.27131553497581
Source of the keplerian elements: AFSPC